sat.trackr.live / text

‹ back to catalog

AMC-14

NORAD 32708 · 2008-011A

PAYLOAD ACTIVE UNKNOWN

§ Identity

Operator
Country
US
Launch date
2008-03-14
Launch site
TYMSC
Launch vehicle
Mass (kg)
RCS (m²)
13.11

Purposes: comms

External: N2YO · Heavens-Above · Gunter

§ Orbital elements

Epoch: 2026-05-24T17:45:13.724352Z

Period
1,434.98 min
Inclination
23.9746°
Eccentricity
0.0048303
Mean motion
1.00349679 rev/d
Perigee alt
35,561.2 km
Apogee alt
35,968.3 km
Semi-major
42,142.9 km
B*
0.0000e+0
RAAN
20.7664°
Arg perigee
90.0743°
Mean anomaly
96.0893°
Rev number
6,793

§ Raw data

AMC-141 32708U 08011A   26144.73974218  .00000000  00000+0  00000+0 0  99962 32708  23.9746  20.7664 0048303  90.0743  96.0893  1.00349679 67938

JSON: /api/v1/satellites/32708 · /tle

For live sub-satellite position, see the globe view (requires WebGL).

§ Visibility from observer

Set your observer location to see the next 7 days of passes ≥ 10°. The values pass through the URL so the page stays shareable.

No JS? Fill the form by hand. The geolocation button needs JavaScript.